Estación de Las Viñas

Ultimos registro cada 15 minutos 63
Estación Fecha / Hora Temperatura Humedad Lluvia Velocidad Dirección Radiación Presion
63 Las Viñas 03-05-2026 15:30 8,5 83 0,8 0 54 42 1017,9
62 Las Viñas 03-05-2026 15:15 8,5 83 0,4 0 344 39 1017,8
61 Las Viñas 03-05-2026 15:00 8,5 84 0,2 0 15 49 1017,7
60 Las Viñas 03-05-2026 14:45 8,5 85 0,2 0 4 91 1017,8
59 Las Viñas 03-05-2026 14:30 8,7 86 0,4 0 344 58 1018,1
58 Las Viñas 03-05-2026 14:15 8,8 86 0,6 0 34 192 1018,1
57 Las Viñas 03-05-2026 14:00 8,6 87 0,4 0 81 65 1018,5
56 Las Viñas 03-05-2026 13:45 8,4 88 0,4 0 156 53 1018,5
55 Las Viñas 03-05-2026 13:30 8,6 88 1,8 0 324 44 1018,6
54 Las Viñas 03-05-2026 13:15 9,1 88 1 0 23 44 1018,3
53 Las Viñas 03-05-2026 13:00 9,2 89 0,8 0 14 56 1018,4
52 Las Viñas 03-05-2026 12:45 9,7 88 1,4 0 41 77 1018,3
51 Las Viñas 03-05-2026 12:30 10,5 89 0,2 0 345 70 1018,6
50 Las Viñas 03-05-2026 12:15 10,4 88 0,2 0 345 74 1018,5
49 Las Viñas 03-05-2026 12:00 10,4 86 0 0 345 65 1018,5
48 Las Viñas 03-05-2026 11:45 10,3 85 0 0 345 70 1018,5
47 Las Viñas 03-05-2026 11:30 10,1 87 0 0 353 142 1018,1
46 Las Viñas 03-05-2026 11:15 9,9 88 0 0 346 93 1017,9
45 Las Viñas 03-05-2026 11:00 9,8 87 0,2 0 351 125 1017,9
44 Las Viñas 03-05-2026 10:45 9,8 87 0 0 31 90 1018,1
43 Las Viñas 03-05-2026 10:30 9,6 84 0 0 25 40 1018,6
42 Las Viñas 03-05-2026 10:15 9,3 83 0 0 351 69 1018,1
41 Las Viñas 03-05-2026 10:00 9,1 83 0 0 5 62 1017,9
40 Las Viñas 03-05-2026 09:45 8,7 84 0 0 2 88 1018,1
39 Las Viñas 03-05-2026 09:30 8,3 85 0 0 345 69 1018,4
38 Las Viñas 03-05-2026 09:15 7,9 87 0 0 315 91 1017,8
37 Las Viñas 03-05-2026 09:00 7,4 88 0 0 346 51 1017,8
36 Las Viñas 03-05-2026 08:45 7 87 0 0 2 47 1017,6
35 Las Viñas 03-05-2026 08:30 6,7 85 0 0 360 26 1017,9
34 Las Viñas 03-05-2026 08:15 6,4 82 0 0 360 30 1017,8
33 Las Viñas 03-05-2026 08:00 6 80 0 0 351 16 1017,8
32 Las Viñas 03-05-2026 07:45 5,8 79 0 0 351 12 1017,9
31 Las Viñas 03-05-2026 07:30 5,6 79 0 0 351 0 1017,7
30 Las Viñas 03-05-2026 07:15 5,4 78 0 0 24 0 1017,8
29 Las Viñas 03-05-2026 07:00 5,3 79 0 0 206 0 1017,8
28 Las Viñas 03-05-2026 06:45 5,3 78 0 0 205 0 1018,1
27 Las Viñas 03-05-2026 06:30 5,3 79 0 0 205 0 1018,1
26 Las Viñas 03-05-2026 06:15 5,3 78 0 0 205 0 1017,9
25 Las Viñas 03-05-2026 06:00 5,3 78 0 0 205 0 1017,8
24 Las Viñas 03-05-2026 05:45 4,9 78 0 0 191 0 1017,6
23 Las Viñas 03-05-2026 05:30 4,6 79 0 0 191 0 1017,3
22 Las Viñas 03-05-2026 05:15 4,4 80 0 0 191 0 1017,3
21 Las Viñas 03-05-2026 05:00 4,5 80 0 0 191 0 1017,3
20 Las Viñas 03-05-2026 04:45 4,5 79 0 0 191 0 1017,5
19 Las Viñas 03-05-2026 04:30 4,3 79 0 0 191 0 1017,7
18 Las Viñas 03-05-2026 04:15 3,9 80 0 0 191 0 1017,9
17 Las Viñas 03-05-2026 04:00 3,6 82 0 0 191 0 1017,8
16 Las Viñas 03-05-2026 03:45 3,6 83 0 0 191 0 1017,9
15 Las Viñas 03-05-2026 03:30 3,7 83 0 0 191 0 1017,7
14 Las Viñas 03-05-2026 03:15 3,8 83 0 0 191 0 1018
13 Las Viñas 03-05-2026 03:00 3,9 83 0 0 191 0 1018,2
12 Las Viñas 03-05-2026 02:45 3,9 84 0 0 191 0 1018,2
11 Las Viñas 03-05-2026 02:30 4,2 85 0 0 191 0 1017,9
10 Las Viñas 03-05-2026 02:15 4,6 84 0 0 191 0 1018
9 Las Viñas 03-05-2026 02:00 5 84 0 0 191 0 1018,2
8 Las Viñas 03-05-2026 01:45 5,4 82 0 0 191 0 1018,6
7 Las Viñas 03-05-2026 01:30 5,6 81 0 0 191 0 1018,1
6 Las Viñas 03-05-2026 01:15 5,6 81 0 0 191 0 1018,2
5 Las Viñas 03-05-2026 01:00 5,3 82 0 0 191 0 1018,5
4 Las Viñas 03-05-2026 00:45 5 84 0 0 191 0 1018,6
3 Las Viñas 03-05-2026 00:30 5 84 0 0 191 0 1018,6
2 Las Viñas 03-05-2026 00:15 5,2 84 0 0 191 0 1018,6
1 Las Viñas 03-05-2026 00:00 5,3 84 0 0 191 0 1018,6